Location: Ku?niki
(51.4449°N, 17.8974°E)
Time: 19:55:35
(UTC+00:00)

DX 1 - Pass Details

Date: 04 July 2022
Orbit: 617 x 629 km, 98.4° (Epoch: 08 August)

Event Time Altitude Azimuth Distance (km) Brightness Sun altitude
Rises 20:16:09 0° 14° (NNE) 2,933 ? -8.2°
Reaches altitude 10° 20:18:22 10° 14° (NNE) 2,020 ? -8.4°
Maximum altitude 20:22:46 88° 289° (WNW) 636 ? -8.8°
Drops below altitude 10° 20:27:07 10° 198° (SSW) 1,997 ? -9.1°
Sets 20:29:18 0° 198° (SSW) 2,897 ? -9.3°
Enters shadow 20:29:27 -1° 198° (SSW) 2,960 ? -9.3°
